Regional Weather Roundup
Issued by NWS

Home | Current Version | Previous Version | Graphics & Text | Print | Product List | Glossary On
Versions: 1 2 3 4 5 6 7 8 9 10 11 12 13 14 15 16 17 18 19 20 21 22 23 24 25 26 27 28 29 30 31 32 33 34 35 36 37 38 39 40 41 42 43 44 45 46 47 48 49 50
000
ASUS45 KSLC 051810
RWRUT

UTAH REGIONAL WEATHER ROUNDUP
NATIONAL WEATHER SERVICE SALT LAKE CITY UT
1200 PM MDT SUN JUL 05 2015

UTZ001>011-023>025-051900-

NORTHERN UTAH

CITY           SKY/WX    TMP DP  RH WIND       PRES   REMARKS
BRIGHAM CITY   CLOUDY    71  63  77 NW3       30.07R
HILL AFB       PTSUNNY   72  64  76 VRB3      30.09S
LOGAN          CLOUDY    68  62  81 NW3       30.09S
OGDEN          CLOUDY    74  60  61 S9        30.06S
PROVO AIRPORT  CLOUDY    73  55  53 E3        30.09F
SALT LAKE CITY PTSUNNY   76  63  64 SE8       30.05S
VERNAL         CLOUDY    73  57  57 S9        30.12S
WENDOVER       PTSUNNY   82  52  34 SE3       30.03F
HEBER CITY     LGT RAIN  63  59  88 N3        30.17S
WEST JORDAN    PTSUNNY   73  61  64 S9        30.08F

$$

UTZ012>022-026-027-051900-

SOUTHERN/CENTRAL UTAH

CITY           SKY/WX    TMP DP  RH WIND       PRES   REMARKS
BLANDING       MOSUNNY   73  60  62 S5        30.25F
BRYCE CANYON   SUNNY     76  44  32 NW13G25   30.30R
CEDAR CITY     MOSUNNY   83  46  27 S10G17    30.14F
DELTA          SUNNY     85  48  28 W6        30.06R
HANKSVILLE     MOSUNNY   77  63  61 CALM      30.10S
MILFORD        PTSUNNY   86  42  21 VRB7      30.07S
MOAB/CYNLANDS  SUNNY     77  59  53 VRB3      30.08F
PRICE          CLOUDY    72  55  55 E6        30.17S
ST GEORGE      CLOUDY    91  50  24 W8        29.98F
KANAB          SUNNY     88  50  27 W12       30.16F

$$

REGIONAL REPORTS     COLORADO/ARIZONA

CITY           SKY/WX    TMP DP  RH WIND       PRES   REMARKS
CRAIG, CO      LGT RAIN  70  53  54 W10       30.18S
GRAND JUNCTION CLOUDY    71  59  65 W9        30.11F
RIFLE          LGT RAIN  70  59  68 W10       30.14R
MONTROSE       CLOUDY    74  56  53 N7        30.18S
CORTEZ         MOSUNNY   76  54  46 CALM      30.19S
PAGE, AZ       SUNNY     89  49  25 CALM      30.04F
GRAND CANYON   MOSUNNY   78  51  38 W7        30.27S
KINGMAN        SUNNY     95  49  20 SW17G26   30.04S HX  92
FLAGSTAFF      MOSUNNY   74  53  48 SW10      30.31S

$$

REGIONAL REPORTS    NEVADA/IDAHO/WYOMING

CITY           SKY/WX    TMP DP  RH WIND       PRES   REMARKS
LAS VEGAS, NV  MOSUNNY   99  46  16 VRB5      29.87S HX  95
ELY            SUNNY     81  37  20 SW13G21   30.18S
ELKO           PTSUNNY   77  53  43 SW13G22   30.12S
POCATELLO, ID  PTSUNNY   77  52  41 S16       30.05S
BURLEY         CLOUDY    73  58  59 S9        30.01R
EVANSTON, WY   RAIN      57  55  93 SW8       30.24S FOG
ROCK SPRINGS   CLOUDY    67  53  61 W8        30.19R
KEMMERER       CLOUDY    59  55  88 NW10      30.24S

$$



USA.gov is the U.S. government's official web portal to all federal, state and local government web resources and services.